Starlink 32813

operational
NORAD ID: 62869 Int'l Des: 2025-022 Owner: SPXS Country: US Constellation: starlink
LEOCIRCULAR

Starlink 32813について

説明を読み込み中...

リアルタイム位置

3D地球を読み込み中...

次回通過

高度履歴

Altitude vs Time

uPlot chart will show altitude changes over time

軌道要素

1 62869U 25022R 26033.13499756 .00026311 00000-0 89766-3 0 9992
2 62869 53.1582 294.9702 0001848 95.9931 264.1281 15.30187308 56457
Epoch: Feb 2, 2026 • Age: 51 hours

現在のステータス

高度 491.7 km
速度 7.62 km/s
衛星直下点 -46.34°S, 75°W
打ち上げ日 Feb 2, 2025
運用期間 1 years
タイプ internet

技術仕様

分類 Payload
質量 730.00 kg
乾燥質量 700.00 kg
総質量 730.00 kg
長さ 0.30 m
直径 4.10 m
スパン 29.00 m
形状 Box + pan
製造者 SPXS
バスタイプ Starlink V2M
フェーズステータス In Orbit
所有者/国 SPXS/US

大規模コンステレーション

Loading constellations...